This demonstration page uses our WeatherBlox Daily Observations layout. Learn more.

Hourly Observations for June 1, 2020

Temp ( °F °C ) Dew Point ( °F °C ) Humidity (%) Winds ( mph kmh ) Pressure ( in mb ) Visibility ( mi km ) Precip ( " mm )
12:53 am 00:53 Clear 50 10 48 8.9 93 93 Calm 30.3 1026 10 16.0934 0 0
1:53 am 01:53 Clear 49 9.4 48 8.9 97 97 Calm 30.32 1027 10 16.0934 0 0
2:53 am 02:53 Clear 48 8.9 46 7.8 93 93 Calm 30.31 1027 10 16.0934 0 0
3:53 am 03:53 Clear 47 8.3 46 7.8 97 97 WNW 3 6 30.31 1026 10 16.0934 0 0
4:53 am 04:53 Clear 46 7.8 45 7.2 96 96 W 3 6 30.32 1027 10 16.0934 0 0
5:53 am 05:53 Clear 45 7.2 45 7.2 100 100 Calm 30.33 1027 10 16.0934 0 0
6:53 am 06:53 Sunny 47 8.3 45 7.2 93 93 Calm 30.35 1028 10 16.0934 0 0
7:53 am 07:53 Sunny 52 11.1 45 7.2 77 77 Calm 30.34 1028 10 16.0934 0 0
8:53 am 08:53 Sunny 59 15 47 8.3 64 64 Calm 30.35 1028 10 16.0934 0 0
9:53 am 09:53 Sunny 63 17.2 46 7.8 54 54 VRB 5 7 30.35 1028 10 16.0934 0 0
10:53 am 10:53 Sunny 66 18.9 45 7.2 47 47 VRB 3 6 30.34 1028 10 16.0934 0 0
11:53 am 11:53 Sunny 68 20 44 6.7 42 42 SW 3 6 30.33 1027 10 16.0934 0 0
12:53 pm 12:53 Sunny 70 21.1 43 6.1 38 38 VRB 3 6 30.31 1026 10 16.0934 0 0
1:53 pm 13:53 Sunny 72 22.2 43 6.1 35 35 Calm 30.28 1025 10 16.0934 0 0
2:53 pm 14:53 Sunny 74 23.3 44 6.7 34 34 W 5 7 30.26 1025 10 16.0934 0 0
3:53 pm 15:53 Sunny 75 23.9 44 6.7 33 33 VRB 3 6 30.23 1024 10 16.0934 0 0
4:53 pm 16:53 Sunny 76 24.4 43 6.1 31 31 SW 3 6 30.21 1023 10 16.0934 0 0
5:53 pm 17:53 Mostly Sunny 75 23.9 46 7.8 36 36 WSW 5 7 30.19 1022 10 16.0934 0 0
6:53 pm 18:53 Partly Cloudy 73 22.8 47 8.3 40 40 WSW 5 7 30.17 1022 10 16.0934 0 0
7:53 pm 19:53 Cloudy 69 20.6 54 12.2 59 59 Calm 30.16 1021 10 16.0934 0 0
8:53 pm 20:53 Cloudy 67 19.4 56 13.3 68 68 Calm 30.16 1021 10 16.0934 0 0
9:53 pm 21:53 Mostly Clear 65 18.3 55 12.8 70 70 Calm 30.14 1021 10 16.0934 0 0
10:53 pm 22:53 Cloudy 65 18.3 54 12.2 68 68 Calm 30.14 1021 10 16.0934 0 0
11:53 pm 23:53 Mostly Cloudy 64 17.8 57 13.9 78 78 Calm 30.13 1020 10 16.0934 0 0

Powered by AerisWeather